YAOGAN-29
Last updated on Mon Jun 22 2026 00:02:14 GMT+0000 (Coordinated Universal Time)
1 41038U 15069A 26172.49576502 .00000544 00000+0 73435-4 0 9991
2 41038 98.0024 201.1358 0002382 47.5165 312.6249 14.83088194571268
Next 0 passes for location: London (51.5072 / 0.1276)
No passes found over London.